Погода в Волышове

Россия / Псковская область     57°37′16″N   29°41′09″E
темп.,
°C
ветер,
м/с
пор.,
м/с
влажн.,
%
обл.,
%
осадки,
мм/ч
давл.,
гПа
погр.,
м
4 марта, чт
чт400:00+2з71486100 0.0 1007835
03:00+1з61393100 0.1 1006732
06:000ссз4994100 1.1 1004626
09:00−1ссз3781100 1.1 1004581
12:000ссз466353 0.0 1004925
15:00+1сз466240 0.1 10041288
18:00−1сз487242 0.4 1005702
21:00−4ссз597752 0.4 1006825
5 марта, пт
пт500:00−4ссз487424 0.0 1008822
03:00−4сз367521 0.0 1009740
06:00−4зсз357832 0.0 1009509
09:00−4ссз237663 0.0 1010537
12:00−4ссв2385100 0.6 1011423
15:00−3с4660100 1.1 10121237
18:00−4с466599 0.1 10131083
21:00−5ссз377785 0.1 1016685
6 марта, сб
сб600:00−6ссз4680100 0.1 1018660
03:00−7сз368578 0.1 1019353
06:00−7зсз378734 0.0 1019430
09:00−7з478429 0.0 1020327
12:00−4з57630 0.0 1018824
15:00−2зюз7115434 0.0 10151260
18:00−3юз91687100 0.3 10101353
21:00−1зюз81864100 0.6 10061361
7 марта, вс
вс700:00−2зюз101883100 0.3 10011128
03:00−1зюз91891100 0.7 9971197
06:00−3сз71273100 2.5 9951257
09:00−4з7156794 2.6 9951660
12:00−5зсз9157778 0.4 9951757
15:00−5зсз8144785 0.7 9962600
18:00−6зсз81483100 0.1 9961564
21:00−6сз91576100 0.6 9991578
8 марта, пн
пн800:00−8ссз61083100 0.1 10031029
03:00−9сз61087100 0.3 1006906
06:00−10ссз6108599 0.2 1008837
09:00−11ссз698499 0.3 1011806
12:00−10ссз6978100 0.1 1014742
15:00−7ссз696687 0.1 10161045
18:00−8ссз58670 0.0 10181002
21:00−11ссз49800 0.0 1021597